Hebron, KY

7:06 AM EDT on July 26, 2016 (GMT -0400)
Cincinnati-Northern KY International

Weather History for KCVG - July, 2012

Change the Weather History Date:

Saturday, July 28, 2012

  Actual Average Record
Temperature  
Mean Temperature 75 °F 76 °F  
Max Temperature 85 °F 86 °F 103 °F (1930)
Min Temperature 65 °F 66 °F 53 °F (1962)
Degree Days  
Heating Degree Days 0 0  
Month to date heating degree days 0 0  
Since 1 June heating degree days 12 15  
Since 1 July heating degree days 0 0  
Cooling Degree Days 10 11  
Month to date cooling degree days 474 306  
Year to date cooling degree days 938 626  
Since 1 June cooling degree days 735 532  
Growing Degree Days 24 (Base 50)    
Moisture  
Dew Point 64 °F    
Average Humidity 72    
Maximum Humidity 100    
Minimum Humidity 44    
Precipitation  
Precipitation 0.00 in 0.12 in 1.43 in (1915)
Month to date precipitation 1.83 3.40  
Year to date precipitation 20.66 26.02  
Snow  
Snow 0.00 in 0.00 in 0.00 in ()
Month to date snowfall 0.0 0.0  
Since 1 June snowfall 0.0 0.0  
Since 1 July snowfall 0.0 0.0  
Snow Depth 0.00 in    
Sea Level Pressure  
Sea Level Pressure 30.01 in    
Wind  
Wind Speed 7 mph (NW)    
Max Wind Speed 15 mph    
Max Gust Speed 21 mph    
Visibility 6 miles    
Events Fog    
T = Trace of Precipitation, MM = Missing Value Source: NWS Daily Summary

Daily Weather History Graph

Daily Weather History Graph

Search for Another Location

Airport or City:

Trip Planner

Search our weather history database for the weather conditions in past years. The results will help you decide how hot, cold, wet, or windy it might be!

Date:

Astronomy

Jul. 28, 2012 Rise Set
Actual Time 6:36 AM EDT 8:53 PM EDT
Civil Twilight 6:06 AM EDT 9:23 PM EDT
Nautical Twilight 5:29 AM EDT 10:00 PM EDT
Astronomical Twilight 4:48 AM EDT 10:40 PM EDT
Moon 4:56 PM EDT (7/28) 1:55 AM EDT (7/28)
Length of Visible Light 15h 17m
Length of Day
14h 17m
Waxing Gibbous, 75% of the Moon is Illuminated
Jul 28
Waxing Gibbous
Aug 1
Full
Aug 9
Last Quarter
Aug 17
New
Aug 24
First Quarter

Hourly Weather History & Observations

Time (EDT) Temp. Heat Index Dew Point Humidity Pressure Visibility Wind Dir Wind Speed Gust Speed Precip Events Conditions
12:52 AM 66.9 °F - 64.9 °F 93% 29.92 in 9.0 mi SW 4.6 mph - N/A   Overcast
1:52 AM 66.9 °F - 64.9 °F 93% 29.92 in 6.0 mi West 3.5 mph - N/A   Partly Cloudy
2:52 AM 66.9 °F - 64.9 °F 93% 29.92 in 3.0 mi Calm Calm - N/A   Clear
3:29 AM 66.2 °F - 64.4 °F 94% 29.96 in 2.5 mi SSW 4.6 mph - N/A   Partly Cloudy
3:36 AM 66.2 °F - 64.4 °F 94% 29.96 in 3.0 mi SSW 3.5 mph - N/A   Scattered Clouds
3:40 AM 66.2 °F - 64.4 °F 94% 29.97 in 0.8 mi SSW 4.6 mph - N/A   Mostly Cloudy
3:50 AM 66.2 °F - 64.4 °F 94% 29.97 in 0.1 mi SSW 4.6 mph - N/A Fog Fog
3:52 AM 66.9 °F - 64.9 °F 93% 29.94 in 0.1 mi SSW 5.8 mph - N/A Fog Fog
4:52 AM 66.9 °F - 66.0 °F 97% 29.94 in 0.1 mi Calm Calm - N/A Fog Fog
5:52 AM 66.9 °F - 66.0 °F 97% 29.96 in 0.1 mi Calm Calm - N/A Fog Fog
6:28 AM 66.2 °F - 66.2 °F 100% 30.00 in 0.1 mi Calm Calm - N/A Fog Fog
6:38 AM 66.2 °F - 66.2 °F 100% 30.00 in 0.1 mi WSW 3.5 mph - N/A   Overcast
6:50 AM 66.2 °F - 66.2 °F 100% 30.00 in 0.1 mi Calm Calm - N/A Fog Fog
6:52 AM 66.9 °F - 66.0 °F 97% 29.98 in 0.1 mi Calm Calm - N/A Fog Fog
6:59 AM 66.2 °F - 66.2 °F 100% 30.00 in 0.1 mi WSW 3.5 mph - N/A Fog Fog
7:35 AM 66.2 °F - 66.2 °F 100% 30.01 in 1.0 mi Calm Calm - N/A   Partly Cloudy
7:52 AM 68.0 °F - 66.0 °F 93% 30.00 in 2.0 mi WNW 3.5 mph - N/A   Partly Cloudy
8:43 AM 69.8 °F - 66.2 °F 88% 30.03 in 8.0 mi NNW 8.1 mph - N/A   Partly Cloudy
8:52 AM 71.1 °F - 66.0 °F 84% 30.01 in 8.0 mi NNW 8.1 mph - N/A   Partly Cloudy
9:52 AM 73.0 °F - 66.0 °F 79% 30.02 in 10.0 mi NNW 11.5 mph - N/A   Mostly Cloudy
10:29 AM 71.6 °F - 66.2 °F 83% 30.05 in 8.0 mi NNW 12.7 mph - N/A   Overcast
10:52 AM 70.0 °F - 64.0 °F 81% 30.04 in 7.0 mi NNW 10.4 mph - N/A   Overcast
11:52 AM 73.9 °F - 64.0 °F 71% 30.05 in 10.0 mi NNW 11.5 mph - N/A   Overcast
12:52 PM 75.0 °F - 62.1 °F 64% 30.06 in 10.0 mi NW 9.2 mph - N/A   Mostly Cloudy
1:52 PM 80.1 °F 81.1 °F 61.0 °F 52% 30.05 in 10.0 mi NW 8.1 mph 17.3 mph N/A   Scattered Clouds
3:52 PM 84.0 °F 84.4 °F 61.0 °F 46% 30.04 in 10.0 mi North 6.9 mph - N/A   Mostly Cloudy
4:52 PM 82.9 °F 83.2 °F 60.1 °F 46% 30.04 in 10.0 mi NNW 12.7 mph - N/A   Scattered Clouds
5:52 PM 82.0 °F 82.4 °F 60.1 °F 47% 30.03 in 10.0 mi North 10.4 mph - N/A   Scattered Clouds
6:52 PM 81.0 °F 81.6 °F 60.1 °F 49% 30.04 in 10.0 mi NNW 10.4 mph - N/A   Partly Cloudy
7:52 PM 81.0 °F 81.7 °F 61.0 °F 50% 30.04 in 10.0 mi NNW 10.4 mph - N/A   Scattered Clouds
8:52 PM 78.8 °F - 62.6 °F 57% 30.06 in 10.0 mi North 12.7 mph - N/A   Scattered Clouds
9:52 PM 75.0 °F - 62.1 °F 64% 30.06 in 10.0 mi North 5.8 mph - N/A   Partly Cloudy
10:52 PM 75.0 °F - 62.1 °F 64% 30.06 in 10.0 mi NE 9.2 mph - N/A   Partly Cloudy
11:52 PM 73.9 °F - 61.0 °F 64% 30.05 in 10.0 mi NE 8.1 mph - N/A   Partly Cloudy